Location: Days
(41.3591°N, 106.7339°W)
Time: 05:32:31
(UTC+00:00)

AO-73 - Visible Passes

Search period start: 26 June 2022 00:00
Search period end: 06 July 2022 00:00
Orbit: 578 x 658 km, 97.6° (Epoch: 25 June)

Date Brightness Start Highest point End Pass type
(mag) Time Alt. Az. Time Alt. Az. Time Alt. Az.
26 Jun ? 10:41:55 10° NNE 10:46:06 39° E 10:50:18 10° SSE visible
27 Jun ? 10:58:29 10° NNE 11:02:54 60° E 11:07:21 10° S visible
29 Jun ? 09:57:49 10° ENE 09:59:59 13° E 10:02:08 10° ESE visible
30 Jun ? 10:13:35 10° NE 10:16:53 20° E 10:20:13 10° SE visible
01 Jul ? 10:29:48 10° NE 10:33:45 29° E 10:37:43 10° SSE visible
02 Jul ? 10:46:16 10° NNE 10:50:35 44° E 10:54:55 10° S visible
05 Jul ? 10:01:47 10° NE 10:04:25 15° E 10:07:04 10° SE visible
